Temp
93 93 92 91 92 93 94 94 95 93 92 93 93 93 90 87 84 83 84 86 91 94 99 96 93 95 96 95 98 97 97 91 90 97 95 96 94 77 74 72 72 73 72 73 72 74 74 74 74 74 75 74 75 75 73 73 73 72 72 72 72 72 71 70 70 70 70 70 70 70 70 71 71 71
91 93 93 93 93 93 94 94 96 93 91 92 93 93 92 90 86 84 83 84 92 92 97 100 96 94 95 99 98 98 98 85 91 96 96 96 94 72 74 73 73 72 71 70 71 71 73 72 72 71 71 72 73 73 72 72 72 72 71 71 71 70 70 68 68 69 69 69 69 69 69 70 70 70
92 90 91 91 92 93 94 95 97 94 92 92 93 93 92 91 89 86 85 82 89 94 91 96 99 98 96 100 98 99 99 92 93 96 96 95 81 75 78 73 71 72 70 69 69 70 69 70 70 70 70 71 71 71 71 70 70 70 69 69 69 68 68 67 67 68 68 68 68 68 68 69 69 69
92 90 89 89 90 92 92 92 94 94 92 93 93 93 92 91 90 89 86 84 84 93 95 95 97 99 97 97 96 95 97 93 83 96 96 92 85 89 87 75 71 70 69 68 69 68 67 68 69 70 70 71 71 71 70 69 69 67 67 67 66 66 66 65 67 67 67 67 67 67 67 67 68 68
91 89 89 89 90 91 91 91 93 94 94 93 93 92 92 92 92 90 87 85 85 90 95 95 96 98 97 97 95 95 97 97 96 92 96 96 96 97 92 86 72 69 68 68 67 67 67 68 69 69 70 70 70 70 69 68 66 65 65 64 64 64 64 64 65 66 66 66 66 66 66 66 66 67
92 90 89 89 91 91 90 92 93 94 95 95 95 94 93 92 91 91 88 87 86 85 91 93 95 95 96 94 96 93 94 95 94 94 96 99 97 95 97 91 84 68 69 67 66 66 67 67 67 68 68 68 68 67 66 66 64 64 63 63 63 63 62 63 65 65 64 65 65 66 66 66 66 66
91 90 89 91 91 93 91 91 93 95 94 95 94 94 95 93 93 93 90 87 85 86 88 91 93 94 94 93 93 94 95 94 94 93 96 97 99 97 97 94 89 70 69 67 67 66 66 66 66 66 67 67 66 65 64 63 63 62 62 62 63 62 62 62 63 64 63 63 64 65 65 65 65 65
91 91 90 92 93 93 91 90 91 93 94 92 91 91 91 91 91 92 92 89 86 87 86 88 90 92 91 93 95 96 95 96 94 95 95 97 95 97 99 94 89 75 67 67 67 67 66 65 65 64 65 65 63 63 62 62 62 62 61 61 61 61 61 61 61 62 61 62 63 64 64 64 65 64
91 91 92 92 93 92 90 91 91 93 91 92 92 92 92 91 92 92 91 90 89 87 85 87 90 91 91 93 93 94 93 94 94 94 92 95 95 93 99 98 89 72 66 68 67 67 66 66 65 65 65 65 64 63 62 62 62 61 61 60 60 61 61 61 60 61 60 61 62 62 62 63 64 64
93 92 92 92 93 93 92 91 92 91 91 92 92 91 91 92 91 90 90 89 88 87 87 87 88 90 90 91 91 93 92 92 92 92 93 94 93 92 94 97 93 89 88 87 81 68 68 66 64 66 66 64 63 64 64 63 62 61 60 58 58 59 59 59 60 60 59 60 61 61 62 62 63 64
95 95 94 93 93 92 92 92 92 92 91 93 92 91 90 91 90 90 90 90 88 88 88 89 89 89 92 90 89 93 93 91 90 89 90 89 93 92 91 90 96 98 95 83 73 78 80 74 76 62 62 63 63 64 65 64 62 62 59 58 58 58 58 58 59 59 58 58 58 58 58 59 62 63
97 96 96 97 95 94 93 92 93 92 91 92 91 92 91 90 89 89 91 90 89 88 89 89 89 91 89 90 92 93 91 89 89 91 90 87 88 90 90 91 91 93 92 93 92 77 76 74 70 60 63 65 65 64 66 66 67 62 60 60 61 60 59 58 59 58 58 57 57 56 57 58 60 62
95 96 98 98 98 95 91 89 88 90 88 92 90 90 90 89 89 88 89 89 88 88 88 87 89 88 88 89 89 90 89 88 89 91 91 88 90 91 91 91 92 92 91 93 94 93 91 88 83 84 83 80 73 71 70 69 65 63 61 60 61 61 60 58 59 58 58 57 57 56 56 58 59 61
96 97 98 99 93 90 89 86 83 80 80 81 89 91 91 89 88 88 87 87 88 87 86 88 88 88 89 91 91 90 91 92 91 91 89 87 90 90 89 90 91 92 91 91 88 91 94 91 91 90 90 89 83 87 85 79 74 66 62 61 61 60 60 59 59 58 58 57 57 56 56 57 58 57
93 95 96 96 94 90 86 86 79 78 77 77 77 77 79 82 87 89 88 88 88 87 87 88 88 89 88 90 92 92 94 95 93 91 90 89 88 87 85 84 89 92 90 87 87 88 92 91 88 89 90 90 89 87 81 67 65 64 63 61 61 60 60 60 60 60 58 57 57 57 56 57 57 57
92 93 95 97 99 97 94 92 88 81 76 74 75 74 75 77 77 78 83 86 87 87 87 87 88 89 88 89 90 93 94 92 92 90 89 87 86 85 85 86 85 89 89 86 85 86 91 89 89 89 90 89 89 85 69 63 65 63 62 62 61 61 60 60 60 60 59 58 58 58 57 57 57 57
91 91 92 94 96 100 89 90 92 89 86 75 71 73 73 74 74 72 71 73 83 89 87 87 87 89 89 88 89 91 90 91 88 88 88 88 88 87 86 86 88 90 90 87 85 85 90 88 87 88 89 89 87 78 68 65 64 62 62 62 61 61 61 60 59 59 58 58 57 57 56 55 56 56
92 91 91 91 92 94 93 91 91 90 90 88 83 81 83 85 82 73 69 70 70 76 86 87 86 88 90 87 89 90 90 88 87 87 88 88 88 87 86 88 88 90 93 88 86 84 89 91 90 88 90 89 87 83 70 62 63 63 62 62 60 60 60 59 59 58 58 58 57 56 55 54 54 55
92 92 91 91 91 91 91 92 90 90 90 89 89 88 88 88 89 89 89 87 84 83 84 86 87 89 90 90 90 90 90 90 89 89 88 88 88 88 89 89 90 91 93 90 87 82 87 92 87 88 90 90 87 83 65 62 63 63 61 62 61 60 58 59 59 58 58 57 57 56 55 54 53 53
90 91 90 90 90 90 90 86 78 83 90 90 89 88 90 90 92 94 89 81 81 86 88 88 89 91 91 84 89 89 92 92 91 90 90 90 88 86 85 84 92 92 97 93 87 84 86 91 91 90 93 90 87 83 81 64 63 62 61 61 60 58 58 58 58 58 58 58 57 56 55 53 52 53
90 90 90 89 91 91 89 82 69 72 80 89 89 88 89 91 94 94 96 77 71 73 71 71 73 72 70 67 65 65 65 78 85 88 86 86 91 86 83 85 88 90 95 97 91 88 86 90 90 89 91 88 87 87 83 78 63 61 60 60 59 60 58 57 58 57 58 58 57 57 57 54 54 54
89 90 84 87 90 90 90 75 66 68 78 86 87 88 89 89 89 91 96 94 84 68 68 68 68 68 68 68 66 67 66 65 72 84 82 89 91 87 86 84 87 93 94 96 98 87 87 90 91 88 89 87 86 88 88 80 73 62 60 58 59 59 60 59 58 59 58 58 57 58 55 55 56 75
90 89 86 81 82 86 85 69 65 65 76 86 87 87 88 88 88 91 92 91 90 86 84 83 82 80 76 78 82 83 71 69 73 83 86 90 88 86 86 86 88 87 90 94 95 86 87 88 90 88 84 83 89 89 89 84 81 80 80 76 73 59 60 58 59 57 56 57 58 57 55 54 59 80
89 89 90 84 69 68 69 65 60 62 65 84 87 88 88 88 86 92 91 91 91 90 87 86 86 86 87 88 88 88 88 85 80 83 87 89 88 86 86 88 88 86 89 95 95 88 90 90 88 89 86 83 83 86 86 85 85 86 86 82 83 64 63 61 60 54 57 60 58 57 55 55 56 76
89 90 90 93 75 64 64 63 58 58 59 69 86 86 87 88 88 86 90 89 88 89 88 88 88 88 89 89 91 92 92 92 90 87 87 90 89 88 88 89 89 90 93 96 83 90 86 89 87 89 86 87 88 87 86 85 85 86 85 85 84 82 81 80 77 77 58 54 55 54 53 56 55 63
89 90 91 91 79 62 62 61 58 56 58 59 79 84 71 70 70 84 88 89 89 88 88 88 88 89 90 92 93 95 96 96 94 94 91 89 89 91 93 90 88 89 90 90 75 90 87 86 88 87 85 82 86 87 84 81 85 86 85 87 86 83 83 83 83 82 82 80 78 71 69 56 58 52
89 91 91 91 79 60 58 57 57 57 57 61 73 66 64 64 63 74 88 88 87 87 88 87 87 87 89 90 91 92 93 97 95 96 93 91 90 89 92 93 94 93 94 94 87 90 87 86 88 85 84 85 82 83 85 85 84 85 85 87 85 84 84 85 82 83 83 81 82 60 55 53 53 58
93 90 91 87 70 56 53 54 56 57 58 72 63 60 61 62 67 82 84 84 85 84 85 84 85 86 89 90 91 91 93 94 93 94 93 92 91 90 91 92 90 93 93 94 91 88 88 86 87 86 85 84 82 81 82 86 88 84 81 85 86 86 85 84 83 82 81 81 82 81 82 80 76 70
92 81 71 68 64 57 54 53 55 57 58 58 61 60 60 66 80 81 83 83 85 83 83 84 85 86 87 88 89 91 91 91 92 91 93 94 93 93 91 90 90 90 92 93 91 88 87 86 84 85 84 84 82 82 83 83 86 84 83 83 81 85 84 84 83 82 81 82 81 80 80 79 78 78
71 67 65 62 61 60 61 69 74 78 75 60 58 60 63 77 81 83 83 83 82 83 85 85 86 87 90 90 90 89 89 89 89 89 90 90 90 90 89 88 88 89 90 91 91 89 86 86 85 85 83 82 83 83 84 83 82 85 84 83 84 84 84 83 83 83 81 79 80 80 80 79 78 77
82 80 77 81 73 75 69 70 72 74 74 72 70 72 76 80 83 83 83 84 83 83 85 86 88 89 91 92 90 87 87 86 88 89 87 89 90 90 89 86 85 86 88 90 91 89 87 86 84 83 80 81 82 81 84 85 83 82 84 83 84 79 82 83 82 82 81 81 81 80 79 79 79 77
85 87 76 75 82 83 83 83 84 85 85 84 82 82 82 82 82 81 80 81 85 86 87 88 89 89 89 89 89 89 88 88 88 88 88 87 88 89 88 84 83 85 85 85 87 87 84 85 83 83 82 80 78 80 82 83 82 83 83 83 83 84 85 82 82 82 81 80 80 80 79 81 81 80
84 84 85 86 85 85 84 84 86 88 87 86 86 86 86 85 85 84 85 84 83 84 84 85 86 87 88 88 89 89 89 88 89 89 87 86 86 86 86 84 83 83 83 83 83 83 84 83 83 82 81 80 80 80 80 79 80 83 83 82 81 81 84 85 84 83 80 78 77 80 77 79 81 80
83 83 83 84 86 86 87 88 87 89 89 88 88 87 79 86 88 87 85 86 86 86 85 86 86 86 87 88 88 89 88 88 89 87 80 85 85 83 83 83 83 84 83 82 82 81 81 80 80 78 79 79 79 79 76 75 77 81 83 83 81 80 82 84 84 83 79 79 78 79 80 80 80 81
80 83 83 84 85 85 87 87 89 89 89 89 89 90 90 88 87 86 88 88 87 86 86 85 87 87 87 87 88 88 88 88 88 89 87 85 84 83 83 82 81 80 79 79 79 79 77 74 74 73 70 71 70 73 75 76 71 74 80 81 82 82 82 84 84 81 80 79 81 77 79 81 80 79
81 83 84 85 86 87 87 87 87 89 90 90 90 91 91 90 89 88 88 87 89 88 88 87 86 87 88 88 88 89 89 86 87 86 84 82 80 80 80 79 78 78 78 78 77 77 75 74 73 71 68 65 64 64 67 71 72 76 76 79 81 80 82 83 82 82 81 80 79 78 77 78 81 81
82 84 84 85 86 87 86 87 88 87 88 89 90 91 90 90 91 91 88 84 88 88 89 89 88 88 88 88 87 85 87 86 85 84 82 81 78 77 76 76 74 74 74 77 78 76 74 72 72 71 68 65 62 61 66 70 65 68 77 77 79 82 80 80 80 79 81 81 79 80 79 80 80 83
81 85 86 86 86 88 88 88 88 86 87 88 89 90 91 91 92 90 90 88 87 87 88 89 89 89 89 88 88 87 87 86 85 83 81 81 79 78 77 76 76 75 75 76 77 78 76 73 71 70 69 66 63 63 65 72 71 66 66 72 76 80 82 79 78 78 78 81 80 81 83 80 81 84
83 84 85 86 87 88 88 89 89 88 88 88 88 89 89 90 92 91 90 89 88 87 88 88 88 88 88 89 88 87 86 84 83 82 82 82 80 78 78 77 77 78 77 76 76 76 74 71 70 71 72 70 67 66 68 69 69 74 68 61 73 76 80 75 77 81 81 81 81 82 81 82 69 59
82 84 86 87 88 89 89 89 89 90 90 90 90 91 89 88 89 90 90 88 88 87 87 88 87 84 88 88 88 88 87 85 83 85 84 82 80 79 79 79 78 76 75 74 74 75 72 70 71 73 75 74 73 74 74 72 73 78 79 68 60 70 78 81 80 80 80 82 82 81 79 79 78 75
83 84 85 86 88 89 89 89 90 90 90 91 90 84 89 89 89 89 90 90 87 87 87 87 86 86 87 87 85 84 84 85 86 85 85 83 80 78 75 72 77 76 73 73 74 74 72 73 74 69 76 76 76 77 74 71 70 73 76 76 59 58 59 62 78 81 79 81 81 81 79 79 79 78
84 84 86 88 88 89 90 89 89 90 89 90 90 89 88 87 87 80 87 85 86 86 88 88 86 85 85 86 86 82 82 84 83 82 82 85 82 77 72 73 76 76 73 72 73 75 77 78 75 74 75 74 73 70 68 69 71 74 76 79 76 63 60 54 51 56 72 81 81 77 78 79 80 76
84 86 86 87 88 88 89 89 88 89 89 89 89 89 88 88 88 86 87 87 87 87 88 87 88 86 84 84 84 83 82 82 82 82 80 79 80 79 75 72 74 76 76 75 76 76 77 75 73 72 72 72 72 71 69 69 69 69 69 72 74 73 74 61 56 54 54 52 55 67 75 77 77 73
83 83 86 87 87 87 88 88 89 89 89 89 88 87 87 87 87 86 86 86 87 87 86 86 86 85 84 84 83 82 81 82 82 81 80 78 78 78 78 75 73 76 77 75 74 75 75 74 71 72 72 71 71 68 67 67 67 68 73 75 74 73 72 77 75 62 59 60 58 54 51 53 57 58
81 83 85 85 85 86 87 88 88 87 88 87 87 86 85 86 85 86 85 84 83 82 83 83 83 83 84 84 83 81 80 73 76 78 78 78 77 75 76 76 74 74 75 76 72 73 72 70 70 70 70 70 71 71 69 68 67 68 69 69 72 73 75 75 74 74 74 76 66 56 57 56 58 56
MSLP
1021.54 1021.62 1021.74 1021.98 1021.86 1021.66 1021.42 1021.46 1021.34 1021.58 1021.78 1021.74 1021.74 1021.86 1022.66 1023.30 1024.26 1024.50 1024.22 1023.66 1022.74 1021.70 1020.70 1021.50 1021.14 1020.46 1020.34 1020.30 1019.78 1019.78 1019.66 1019.86 1019.82 1019.46 1019.34 1019.34 1019.46 1020.02 1020.14 1020.14 1020.14 1020.10 1020.14 1020.14 1020.10 1020.02 1019.94 1019.86 1019.78 1019.70 1019.62 1019.62 1019.58 1019.54 1019.58 1019.54 1019.50 1019.38 1019.26 1019.14 1019.02 1018.86 1018.66 1018.50 1018.26 1018.06 1017.86 1017.70 1017.54 1017.38 1017.14 1016.94 1016.74 1016.54
1021.46 1021.46 1021.46 1021.58 1021.82 1021.50 1021.46 1021.54 1021.26 1021.50 1021.86 1021.82 1021.78 1021.90 1022.02 1022.46 1023.62 1023.98 1024.66 1024.22 1022.22 1022.18 1020.90 1020.38 1021.06 1020.54 1020.50 1019.78 1019.78 1019.62 1019.58 1019.82 1019.78 1019.46 1019.34 1019.34 1019.58 1020.14 1020.10 1020.14 1020.18 1020.22 1020.26 1020.26 1020.22 1020.14 1020.06 1019.98 1019.90 1019.82 1019.78 1019.74 1019.66 1019.58 1019.62 1019.66 1019.62 1019.50 1019.42 1019.30 1019.14 1018.94 1018.78 1018.62 1018.38 1018.14 1017.90 1017.70 1017.50 1017.34 1017.18 1016.98 1016.78 1016.62
1021.38 1021.70 1021.78 1021.58 1021.70 1021.42 1021.34 1021.14 1021.06 1021.26 1021.62 1021.74 1021.74 1021.78 1021.82 1022.18 1022.50 1023.26 1023.66 1024.50 1022.50 1021.50 1022.18 1020.98 1020.22 1020.42 1020.26 1019.90 1019.82 1019.62 1019.46 1019.54 1019.66 1019.50 1019.38 1019.42 1019.70 1020.10 1020.14 1020.14 1020.26 1020.38 1020.42 1020.38 1020.38 1020.30 1020.22 1020.14 1020.06 1019.98 1019.98 1019.90 1019.78 1019.70 1019.70 1019.78 1019.74 1019.66 1019.54 1019.38 1019.22 1019.06 1018.90 1018.74 1018.46 1018.22 1017.98 1017.74 1017.54 1017.38 1017.22 1017.02 1016.86 1016.62
1021.22 1021.54 1021.82 1021.74 1021.70 1021.46 1021.50 1021.50 1021.30 1021.34 1021.46 1021.46 1021.62 1021.58 1021.82 1022.02 1022.10 1022.42 1023.22 1023.90 1023.78 1021.66 1021.30 1021.06 1020.50 1019.94 1020.18 1019.94 1020.14 1020.10 1019.66 1019.34 1019.62 1019.50 1019.34 1019.42 1019.38 1019.66 1019.98 1020.26 1020.34 1020.42 1020.46 1020.54 1020.46 1020.42 1020.34 1020.26 1020.22 1020.18 1020.14 1020.06 1019.98 1019.86 1019.86 1019.90 1019.86 1019.78 1019.66 1019.50 1019.34 1019.22 1019.06 1018.82 1018.54 1018.30 1018.06 1017.82 1017.58 1017.42 1017.22 1017.06 1016.86 1016.66
1021.14 1021.42 1021.66 1021.62 1021.50 1021.30 1021.58 1021.54 1021.34 1021.22 1021.26 1021.34 1021.54 1021.58 1021.78 1021.98 1021.78 1022.22 1022.90 1023.58 1023.42 1022.02 1020.78 1020.94 1020.74 1020.18 1020.18 1020.26 1020.10 1020.26 1019.94 1019.62 1019.50 1019.34 1019.18 1019.10 1019.22 1018.98 1019.42 1019.98 1020.38 1020.42 1020.46 1020.54 1020.54 1020.50 1020.42 1020.38 1020.38 1020.30 1020.26 1020.26 1020.18 1020.06 1020.06 1020.06 1019.98 1019.90 1019.78 1019.62 1019.46 1019.30 1019.14 1018.90 1018.62 1018.38 1018.10 1017.86 1017.62 1017.42 1017.26 1017.06 1016.90 1016.70
1020.98 1021.14 1021.54 1021.54 1021.38 1021.18 1021.46 1021.34 1021.30 1021.14 1021.06 1021.02 1021.22 1021.30 1021.54 1021.82 1021.82 1021.62 1022.62 1022.90 1023.14 1023.22 1021.58 1021.26 1020.46 1020.50 1020.06 1020.82 1019.86 1020.42 1020.38 1020.06 1019.74 1019.74 1019.38 1018.90 1018.86 1019.14 1018.78 1019.38 1020.10 1020.42 1020.42 1020.50 1020.58 1020.50 1020.46 1020.46 1020.46 1020.42 1020.42 1020.38 1020.30 1020.26 1020.26 1020.22 1020.10 1020.02 1019.90 1019.70 1019.54 1019.38 1019.22 1018.98 1018.70 1018.42 1018.22 1017.94 1017.70 1017.50 1017.26 1017.10 1016.90 1016.74
1020.82 1021.06 1021.22 1021.26 1021.14 1020.94 1021.30 1021.30 1021.14 1020.82 1020.94 1020.82 1021.02 1021.14 1020.98 1021.42 1021.42 1021.34 1021.70 1022.54 1023.10 1022.90 1022.42 1021.30 1021.18 1020.62 1020.46 1020.74 1020.50 1020.06 1019.86 1019.78 1019.62 1019.86 1019.50 1019.26 1018.90 1018.82 1018.78 1019.02 1019.78 1020.42 1020.42 1020.50 1020.54 1020.54 1020.50 1020.50 1020.50 1020.50 1020.50 1020.46 1020.42 1020.42 1020.38 1020.30 1020.18 1020.06 1019.94 1019.74 1019.58 1019.46 1019.30 1019.10 1018.82 1018.54 1018.34 1018.06 1017.82 1017.54 1017.30 1017.10 1016.90 1016.78
1020.66 1020.82 1021.02 1020.94 1020.78 1020.74 1021.10 1021.18 1021.06 1020.74 1020.74 1020.94 1021.14 1021.34 1021.30 1021.38 1021.46 1021.30 1021.30 1021.62 1022.34 1022.42 1022.70 1021.74 1021.54 1020.86 1020.98 1020.58 1019.98 1019.74 1019.66 1019.70 1019.70 1019.62 1019.34 1018.98 1019.14 1019.02 1018.54 1018.82 1019.58 1020.22 1020.34 1020.38 1020.46 1020.58 1020.58 1020.58 1020.58 1020.54 1020.50 1020.50 1020.50 1020.46 1020.42 1020.34 1020.22 1020.10 1019.94 1019.78 1019.66 1019.54 1019.38 1019.18 1018.94 1018.66 1018.46 1018.18 1017.94 1017.62 1017.38 1017.14 1016.94 1016.82
1020.34 1020.50 1020.62 1020.58 1020.54 1020.62 1021.02 1020.98 1020.98 1020.74 1020.86 1020.82 1020.90 1021.06 1021.06 1021.22 1021.10 1021.06 1021.14 1021.34 1021.54 1022.10 1022.42 1021.94 1021.10 1020.74 1020.66 1020.26 1020.06 1019.82 1020.18 1019.90 1019.66 1019.46 1019.66 1019.46 1019.26 1019.22 1018.58 1018.50 1019.34 1020.02 1020.22 1020.22 1020.38 1020.54 1020.62 1020.62 1020.58 1020.54 1020.50 1020.50 1020.50 1020.50 1020.42 1020.34 1020.22 1020.10 1019.98 1019.86 1019.74 1019.58 1019.42 1019.22 1018.98 1018.74 1018.54 1018.30 1017.98 1017.74 1017.50 1017.26 1017.02 1016.86
1019.94 1020.10 1020.22 1020.18 1020.18 1020.30 1020.62 1020.66 1020.54 1020.46 1020.58 1020.62 1020.78 1020.98 1020.98 1020.90 1020.94 1021.18 1021.18 1021.18 1021.46 1021.66 1021.78 1021.74 1021.62 1020.86 1020.98 1020.62 1020.38 1019.90 1019.94 1020.30 1020.34 1020.06 1019.58 1019.30 1019.26 1019.42 1019.26 1018.74 1019.06 1019.42 1019.62 1019.86 1020.22 1020.50 1020.58 1020.62 1020.58 1020.46 1020.42 1020.46 1020.46 1020.42 1020.38 1020.30 1020.22 1020.14 1020.06 1019.94 1019.78 1019.62 1019.46 1019.26 1019.06 1018.82 1018.62 1018.38 1018.18 1017.94 1017.66 1017.38 1017.14 1016.94
1019.34 1019.50 1019.62 1019.78 1019.82 1019.98 1020.02 1020.14 1020.18 1020.22 1020.42 1020.50 1020.62 1020.66 1020.86 1020.78 1020.94 1021.06 1021.02 1021.06 1021.30 1021.42 1021.54 1021.26 1021.02 1021.02 1020.38 1020.46 1020.90 1019.90 1019.62 1019.90 1020.10 1020.54 1020.46 1020.42 1019.46 1019.38 1019.54 1019.70 1018.78 1018.38 1018.82 1019.10 1019.30 1019.50 1019.62 1020.06 1020.22 1020.38 1020.34 1020.34 1020.34 1020.34 1020.26 1020.22 1020.22 1020.14 1020.10 1019.98 1019.82 1019.66 1019.46 1019.30 1019.14 1018.90 1018.70 1018.50 1018.30 1018.14 1017.90 1017.62 1017.30 1017.02
1018.94 1018.98 1019.02 1019.06 1019.14 1019.34 1019.42 1019.58 1019.66 1019.70 1020.06 1020.06 1020.38 1020.18 1020.34 1020.54 1020.78 1020.90 1020.74 1020.82 1020.94 1021.22 1021.22 1021.22 1021.10 1020.66 1020.74 1020.46 1019.98 1019.66 1019.90 1020.42 1020.22 1019.86 1020.26 1020.90 1020.50 1019.98 1019.54 1019.26 1019.50 1018.98 1018.94 1018.90 1019.10 1019.46 1019.54 1019.78 1020.02 1020.30 1020.26 1020.14 1020.10 1020.18 1020.06 1020.06 1020.10 1020.14 1020.10 1019.98 1019.82 1019.66 1019.50 1019.38 1019.22 1019.02 1018.82 1018.62 1018.46 1018.30 1018.06 1017.78 1017.50 1017.22
1018.74 1018.70 1018.58 1018.54 1018.50 1018.58 1018.86 1019.02 1019.22 1019.26 1019.46 1019.78 1020.22 1020.14 1020.10 1020.38 1020.58 1020.78 1020.74 1020.78 1021.02 1021.10 1021.18 1021.22 1020.78 1020.90 1020.90 1020.62 1020.58 1020.58 1020.58 1020.70 1020.66 1019.82 1019.74 1020.30 1019.86 1019.62 1019.62 1019.22 1018.74 1018.90 1019.10 1018.86 1018.62 1018.70 1018.74 1019.10 1019.54 1019.58 1019.66 1019.70 1019.74 1019.74 1019.62 1019.78 1019.94 1020.10 1020.06 1019.98 1019.86 1019.66 1019.54 1019.46 1019.30 1019.10 1018.90 1018.70 1018.54 1018.42 1018.18 1017.98 1017.74 1017.42
1018.42 1018.34 1018.30 1018.06 1018.18 1018.42 1018.66 1018.90 1019.14 1019.34 1019.50 1019.62 1019.62 1019.74 1019.82 1020.14 1020.42 1020.62 1020.78 1020.86 1020.82 1021.02 1021.26 1021.10 1020.90 1020.98 1020.82 1020.34 1020.06 1020.22 1019.94 1019.58 1019.50 1019.74 1019.90 1020.46 1019.82 1019.66 1019.86 1019.38 1018.90 1018.54 1018.82 1018.94 1019.22 1018.78 1018.14 1018.66 1018.66 1018.70 1018.82 1019.02 1019.18 1018.94 1019.18 1019.58 1019.78 1020.02 1020.02 1019.94 1019.82 1019.66 1019.58 1019.50 1019.34 1019.14 1018.98 1018.78 1018.62 1018.50 1018.30 1018.10 1017.94 1017.70
1018.34 1018.10 1017.98 1017.98 1018.02 1018.30 1018.54 1018.74 1018.94 1019.14 1019.34 1019.50 1019.70 1019.78 1019.86 1019.86 1020.06 1020.26 1020.54 1020.58 1020.46 1020.74 1020.86 1020.54 1020.58 1020.58 1020.70 1020.30 1019.74 1019.74 1019.42 1019.10 1019.30 1019.58 1019.66 1019.98 1020.02 1020.34 1020.74 1021.06 1019.34 1018.14 1018.62 1019.18 1019.38 1019.14 1017.98 1018.22 1018.90 1018.50 1018.50 1018.58 1018.66 1018.78 1019.38 1019.86 1019.94 1019.98 1019.94 1019.82 1019.70 1019.62 1019.58 1019.50 1019.34 1019.18 1018.98 1018.82 1018.66 1018.54 1018.42 1018.26 1018.10 1017.94
1017.94 1017.98 1017.82 1017.62 1017.46 1017.62 1017.86 1018.10 1018.46 1018.82 1019.02 1019.26 1019.42 1019.62 1019.74 1019.82 1019.82 1019.86 1020.14 1020.34 1020.38 1020.38 1020.58 1020.54 1020.34 1020.26 1020.30 1020.10 1019.78 1019.54 1019.26 1019.30 1019.26 1019.34 1019.46 1019.78 1020.06 1020.22 1020.30 1020.14 1020.38 1018.74 1018.30 1019.22 1019.54 1019.34 1018.02 1018.14 1018.46 1018.46 1018.38 1018.46 1018.50 1018.82 1019.50 1019.82 1019.82 1019.86 1019.78 1019.70 1019.58 1019.54 1019.58 1019.50 1019.38 1019.22 1019.02 1018.86 1018.70 1018.58 1018.50 1018.38 1018.26 1018.14
1017.50 1017.54 1017.66 1017.58 1017.26 1016.98 1017.30 1017.70 1017.82 1018.10 1018.54 1018.90 1019.14 1019.26 1019.50 1019.66 1019.70 1019.74 1019.74 1019.78 1019.86 1019.54 1019.98 1020.18 1020.10 1019.94 1019.82 1020.02 1019.62 1019.14 1019.22 1018.98 1019.70 1019.50 1019.66 1019.46 1019.46 1019.50 1019.86 1019.62 1019.26 1018.54 1018.06 1018.94 1019.50 1019.54 1018.18 1018.18 1018.50 1018.50 1018.10 1018.30 1018.46 1019.18 1019.46 1019.66 1019.70 1019.70 1019.66 1019.58 1019.50 1019.50 1019.54 1019.50 1019.42 1019.30 1019.14 1018.98 1018.82 1018.70 1018.58 1018.46 1018.38 1018.30
1016.94 1017.10 1017.30 1017.42 1017.46 1017.14 1017.14 1017.30 1017.54 1017.70 1017.86 1018.18 1018.74 1019.10 1019.18 1019.14 1019.10 1019.38 1019.50 1019.54 1019.58 1019.62 1019.58 1019.58 1019.82 1019.14 1018.94 1019.50 1019.10 1018.66 1018.58 1019.30 1019.62 1019.54 1019.54 1019.10 1019.26 1019.34 1019.38 1018.74 1018.62 1018.06 1017.58 1018.74 1019.10 1019.50 1018.50 1017.74 1018.02 1018.26 1017.66 1017.90 1018.26 1018.58 1019.18 1019.50 1019.54 1019.54 1019.50 1019.42 1019.42 1019.46 1019.46 1019.46 1019.46 1019.42 1019.26 1019.10 1018.90 1018.74 1018.58 1018.46 1018.38 1018.38
1016.38 1016.46 1016.62 1016.78 1016.94 1016.94 1016.98 1016.90 1017.14 1017.42 1017.58 1017.74 1017.94 1018.18 1018.34 1018.30 1018.14 1018.18 1018.34 1018.62 1018.90 1019.06 1019.02 1018.98 1018.78 1018.54 1018.26 1018.30 1018.26 1018.18 1018.14 1018.38 1018.50 1018.54 1018.70 1018.66 1018.70 1018.54 1018.22 1018.22 1017.98 1017.86 1017.26 1017.70 1018.58 1020.06 1018.54 1017.38 1018.22 1018.10 1017.50 1017.70 1018.02 1018.42 1019.18 1019.34 1019.42 1019.38 1019.38 1019.34 1019.38 1019.38 1019.42 1019.46 1019.50 1019.42 1019.30 1019.10 1018.90 1018.70 1018.50 1018.38 1018.34 1018.34
1015.86 1015.90 1016.02 1016.30 1016.46 1016.50 1016.58 1016.58 1016.82 1017.02 1017.10 1017.34 1017.70 1017.86 1017.78 1017.66 1017.50 1017.34 1016.98 1017.10 1017.42 1017.66 1017.82 1017.94 1017.90 1017.74 1017.66 1017.70 1017.78 1017.70 1017.70 1017.70 1017.70 1017.82 1017.86 1017.98 1018.34 1018.82 1019.22 1019.42 1018.14 1017.94 1016.50 1016.78 1018.18 1019.02 1018.66 1017.30 1017.78 1017.66 1016.86 1017.34 1017.98 1018.22 1018.66 1019.18 1019.22 1019.26 1019.26 1019.26 1019.26 1019.34 1019.38 1019.46 1019.42 1019.34 1019.22 1019.02 1018.82 1018.58 1018.42 1018.26 1018.14 1018.10
1015.42 1015.38 1015.46 1015.70 1015.86 1016.02 1016.14 1016.18 1016.54 1016.82 1017.10 1017.30 1017.42 1017.54 1017.58 1017.34 1017.10 1016.86 1016.38 1016.58 1016.90 1017.22 1017.34 1017.34 1017.34 1017.38 1017.50 1017.62 1017.74 1017.82 1017.90 1018.02 1017.94 1018.22 1018.66 1018.78 1018.18 1018.74 1019.38 1018.94 1018.46 1017.94 1016.70 1016.22 1017.02 1017.94 1018.46 1017.38 1017.34 1017.70 1017.14 1017.50 1017.74 1017.86 1018.14 1018.70 1019.14 1019.10 1019.14 1019.14 1019.18 1019.22 1019.30 1019.38 1019.30 1019.26 1019.18 1018.98 1018.70 1018.42 1018.18 1018.02 1017.82 1017.54
1015.06 1014.94 1015.10 1015.22 1015.42 1015.54 1015.58 1015.70 1016.26 1016.58 1016.90 1017.26 1017.26 1017.34 1017.42 1017.50 1017.34 1016.90 1016.18 1016.10 1016.58 1016.74 1016.94 1017.10 1017.18 1017.26 1017.38 1017.46 1017.58 1017.70 1017.78 1017.94 1018.14 1018.62 1019.22 1018.14 1017.82 1018.42 1018.42 1018.94 1018.26 1017.26 1016.54 1016.10 1015.58 1017.58 1017.98 1017.18 1016.82 1017.62 1017.18 1017.42 1017.74 1017.54 1017.46 1018.22 1018.86 1019.14 1019.10 1019.06 1019.02 1019.10 1019.18 1019.22 1019.18 1019.18 1019.18 1019.06 1018.78 1018.38 1018.06 1017.78 1017.42 1016.78
1014.74 1014.66 1014.62 1014.90 1015.02 1015.10 1015.14 1015.46 1015.86 1016.26 1016.50 1016.74 1016.86 1016.94 1017.14 1017.22 1017.14 1016.46 1016.06 1016.30 1016.54 1016.98 1017.34 1017.34 1017.34 1017.34 1017.22 1017.22 1017.26 1017.14 1017.26 1017.46 1017.78 1017.74 1017.74 1017.42 1017.82 1018.26 1018.06 1017.94 1017.86 1018.10 1017.26 1015.78 1015.22 1017.54 1017.46 1017.38 1016.86 1017.34 1018.18 1018.46 1017.10 1016.94 1017.14 1017.78 1018.22 1018.46 1018.50 1018.82 1018.86 1018.98 1019.02 1019.06 1019.02 1019.02 1019.06 1018.98 1018.82 1018.58 1018.26 1017.94 1017.42 1016.70
1014.38 1014.22 1014.18 1014.22 1014.58 1014.86 1015.10 1015.34 1015.62 1015.90 1016.10 1016.22 1016.26 1016.34 1016.58 1016.74 1016.82 1015.78 1015.78 1015.74 1015.90 1016.18 1016.70 1016.74 1016.70 1016.74 1016.46 1016.46 1016.46 1016.50 1016.50 1016.66 1016.90 1016.98 1016.94 1016.94 1017.10 1017.54 1017.66 1017.50 1017.46 1017.82 1017.06 1015.22 1014.94 1016.86 1016.66 1016.50 1016.98 1016.58 1017.46 1018.54 1018.58 1017.66 1017.42 1017.62 1017.58 1017.62 1017.66 1018.02 1018.30 1018.74 1018.78 1018.90 1018.94 1018.98 1018.82 1018.82 1018.74 1018.66 1018.50 1018.26 1017.90 1017.26
1013.98 1013.86 1013.74 1013.46 1013.70 1014.30 1014.70 1015.02 1015.30 1015.58 1015.82 1015.82 1015.82 1015.86 1015.94 1015.70 1015.42 1015.30 1015.62 1015.66 1015.78 1016.06 1016.14 1016.22 1016.22 1016.18 1016.10 1015.98 1015.78 1015.70 1015.74 1015.66 1015.74 1016.02 1016.10 1016.06 1016.22 1016.70 1017.06 1017.10 1016.98 1016.66 1015.82 1014.78 1014.90 1015.82 1017.02 1016.50 1016.86 1016.54 1017.18 1017.22 1017.34 1017.34 1017.22 1017.50 1017.54 1017.58 1017.58 1017.74 1017.86 1018.06 1018.10 1018.18 1018.14 1018.38 1018.62 1018.66 1018.58 1018.54 1018.50 1018.42 1018.34 1018.10
1013.38 1013.22 1013.14 1013.14 1013.18 1013.66 1014.10 1014.54 1014.94 1015.14 1015.38 1015.58 1015.66 1015.30 1015.22 1015.26 1015.46 1015.58 1015.50 1015.54 1015.66 1015.86 1015.94 1015.98 1015.98 1015.90 1015.78 1015.58 1015.38 1015.14 1014.94 1014.82 1014.78 1014.94 1015.22 1015.46 1015.58 1015.50 1015.54 1015.94 1016.46 1016.58 1016.02 1014.78 1014.94 1015.46 1016.26 1016.78 1016.50 1016.82 1017.10 1017.78 1017.34 1016.82 1017.50 1017.98 1017.70 1017.50 1017.46 1017.38 1017.46 1017.82 1017.86 1017.90 1017.90 1017.90 1017.86 1017.94 1017.98 1018.14 1018.18 1018.30 1018.34 1018.38
1012.90 1012.62 1012.62 1012.50 1012.70 1013.18 1013.54 1013.98 1014.42 1014.74 1015.02 1015.38 1015.22 1014.98 1015.18 1015.38 1015.54 1015.70 1015.58 1015.58 1015.66 1015.66 1015.62 1015.70 1015.82 1015.66 1015.42 1015.30 1015.14 1014.94 1014.78 1014.30 1014.06 1014.10 1014.30 1014.66 1014.98 1015.02 1014.82 1014.66 1014.70 1015.06 1014.82 1014.62 1014.90 1015.02 1015.70 1016.26 1015.78 1016.42 1016.90 1016.82 1017.46 1017.26 1016.98 1017.38 1017.58 1017.46 1017.62 1017.46 1017.46 1017.62 1017.62 1017.58 1017.86 1017.78 1017.70 1017.78 1017.70 1017.90 1017.98 1018.06 1018.10 1018.10
1012.10 1012.26 1012.18 1012.18 1012.30 1012.74 1013.14 1013.58 1014.06 1014.46 1014.78 1014.74 1014.70 1014.98 1015.14 1015.30 1015.58 1015.66 1015.66 1015.70 1015.62 1015.66 1015.62 1015.70 1015.62 1015.42 1015.02 1014.86 1014.74 1014.54 1014.22 1014.02 1013.82 1013.86 1013.90 1014.06 1014.26 1014.46 1014.46 1014.34 1014.42 1014.26 1014.30 1014.30 1014.62 1014.94 1015.14 1015.74 1015.74 1015.62 1015.94 1016.50 1017.22 1017.50 1017.34 1016.38 1016.34 1017.38 1017.90 1017.30 1017.26 1017.34 1017.38 1017.46 1017.62 1017.74 1017.74 1017.66 1017.58 1017.50 1017.38 1017.42 1017.54 1017.70
1011.50 1011.50 1011.78 1011.98 1012.18 1012.50 1012.94 1013.34 1013.78 1014.18 1014.42 1014.38 1014.34 1014.54 1014.82 1015.22 1015.42 1015.50 1015.50 1015.34 1015.30 1015.50 1015.46 1015.30 1015.10 1014.86 1014.62 1014.38 1014.14 1013.78 1013.66 1013.62 1013.58 1013.78 1013.78 1013.66 1013.66 1013.70 1013.90 1014.02 1013.98 1014.02 1014.06 1014.06 1014.22 1014.62 1014.94 1015.22 1015.58 1015.38 1015.66 1015.90 1016.58 1016.58 1016.62 1016.66 1016.46 1017.10 1017.30 1017.58 1017.98 1017.42 1017.34 1017.38 1017.46 1017.62 1017.58 1017.50 1017.62 1017.62 1017.66 1017.58 1017.50 1017.26
1011.62 1011.70 1011.86 1012.06 1012.14 1012.46 1012.82 1013.30 1013.66 1013.70 1013.78 1014.10 1014.18 1014.30 1014.62 1014.82 1014.74 1014.74 1014.78 1014.90 1015.02 1015.02 1014.74 1014.58 1014.58 1014.18 1013.78 1013.70 1013.46 1013.42 1013.50 1013.78 1013.86 1013.74 1013.90 1013.94 1014.02 1013.94 1014.14 1014.34 1014.22 1013.86 1013.70 1013.70 1013.82 1014.10 1014.58 1014.82 1015.02 1015.18 1015.62 1015.82 1015.78 1016.10 1015.98 1016.58 1016.82 1016.54 1016.78 1017.42 1017.38 1017.10 1017.30 1017.42 1017.46 1017.34 1017.46 1017.54 1017.42 1017.54 1017.46 1017.50 1017.54 1017.26
1011.66 1011.66 1011.78 1011.78 1011.94 1012.06 1012.26 1012.54 1012.62 1012.90 1012.98 1013.50 1014.02 1014.26 1014.22 1014.06 1013.86 1013.78 1013.90 1013.90 1014.06 1014.10 1014.06 1013.86 1013.58 1013.22 1012.94 1012.70 1013.02 1013.46 1013.62 1013.74 1013.46 1013.18 1013.50 1013.70 1013.70 1013.66 1013.66 1014.10 1014.38 1014.22 1013.78 1013.50 1013.50 1013.70 1014.06 1014.34 1014.62 1014.94 1015.74 1015.78 1015.58 1015.74 1015.66 1015.90 1016.46 1016.74 1016.74 1016.98 1017.14 1018.10 1017.46 1017.34 1017.34 1017.26 1017.22 1017.18 1017.10 1017.22 1017.38 1017.38 1017.38 1017.38
1010.94 1011.02 1011.10 1011.46 1011.66 1011.90 1012.18 1012.30 1012.42 1012.38 1012.34 1012.38 1012.58 1012.86 1012.98 1013.06 1012.98 1012.94 1012.94 1013.06 1013.06 1013.02 1012.94 1012.90 1012.70 1012.62 1012.62 1012.90 1012.86 1012.90 1013.10 1013.10 1012.98 1012.82 1013.10 1013.38 1013.42 1013.22 1013.38 1014.10 1014.30 1013.98 1013.98 1013.86 1013.62 1013.50 1013.70 1013.90 1014.30 1014.54 1014.94 1015.38 1015.82 1015.58 1015.46 1015.70 1016.22 1016.38 1016.62 1016.66 1016.86 1016.94 1016.74 1017.30 1017.30 1017.22 1017.10 1017.10 1017.10 1017.06 1017.14 1016.98 1017.02 1017.10
1010.94 1011.06 1011.18 1011.18 1011.34 1011.50 1011.78 1011.82 1011.70 1011.62 1011.66 1011.70 1011.62 1011.74 1011.86 1012.02 1012.18 1012.34 1012.46 1012.74 1012.70 1012.58 1012.66 1012.70 1012.62 1012.50 1012.38 1012.50 1012.38 1012.46 1012.54 1012.54 1012.42 1012.18 1012.66 1012.74 1013.10 1013.06 1013.18 1013.66 1013.62 1013.86 1014.06 1013.98 1013.82 1013.70 1013.66 1013.78 1013.82 1014.26 1014.66 1014.94 1015.06 1015.22 1015.58 1016.22 1016.22 1016.10 1016.46 1016.54 1016.78 1017.06 1016.82 1016.66 1016.74 1016.82 1017.06 1017.38 1017.34 1016.74 1016.98 1016.78 1016.66 1016.78
1010.90 1010.90 1011.06 1010.94 1010.94 1010.82 1010.74 1010.74 1010.82 1010.86 1010.82 1010.86 1010.98 1010.98 1011.10 1011.18 1011.14 1011.30 1011.46 1011.54 1011.58 1011.74 1011.90 1011.86 1012.02 1012.02 1011.94 1012.02 1011.90 1011.90 1011.98 1011.86 1011.78 1011.82 1012.26 1012.62 1012.54 1013.06 1013.26 1013.38 1013.22 1013.02 1013.30 1013.46 1013.54 1013.74 1013.86 1013.98 1014.06 1014.34 1014.38 1014.70 1014.66 1014.50 1014.46 1014.94 1015.70 1016.14 1016.42 1016.38 1016.50 1016.82 1016.54 1016.38 1016.38 1016.54 1016.98 1017.14 1017.06 1016.86 1016.46 1016.34 1016.22 1016.38
1010.82 1010.66 1010.62 1010.46 1010.34 1010.22 1010.10 1010.02 1009.90 1009.90 1010.06 1010.06 1010.10 1010.10 1010.22 1010.38 1010.46 1010.54 1010.58 1010.58 1010.70 1010.94 1011.10 1011.22 1011.14 1011.14 1011.30 1011.34 1011.22 1011.34 1011.30 1011.42 1011.46 1011.50 1011.62 1011.98 1012.30 1012.50 1012.66 1012.98 1012.94 1012.94 1013.14 1013.30 1013.38 1013.54 1013.78 1014.34 1014.82 1015.38 1015.50 1015.30 1015.46 1015.06 1014.38 1014.18 1014.90 1015.66 1016.06 1016.34 1016.30 1016.38 1016.26 1016.02 1016.14 1016.42 1016.78 1016.82 1016.58 1016.82 1016.50 1015.90 1015.86 1016.02
1010.10 1010.02 1009.98 1009.82 1009.58 1009.38 1009.50 1009.38 1009.34 1009.30 1009.26 1009.30 1009.46 1009.50 1009.62 1009.62 1009.62 1009.86 1009.98 1009.78 1009.98 1010.18 1010.34 1010.50 1010.58 1010.58 1010.58 1010.58 1010.58 1010.54 1010.54 1010.78 1011.02 1011.26 1011.58 1011.90 1012.26 1012.38 1012.38 1012.50 1012.62 1012.70 1012.74 1012.94 1013.30 1013.38 1013.62 1014.06 1014.38 1015.22 1015.74 1015.66 1015.58 1015.70 1015.22 1014.10 1013.78 1014.22 1015.50 1016.14 1015.94 1016.02 1015.86 1015.78 1015.90 1016.06 1016.46 1016.66 1016.42 1016.62 1016.62 1016.26 1015.58 1015.30
1009.38 1009.30 1009.22 1009.14 1008.90 1008.82 1008.86 1008.74 1008.78 1008.82 1008.74 1008.74 1008.74 1008.78 1008.94 1008.98 1008.78 1008.78 1008.86 1009.06 1009.38 1009.46 1009.42 1009.54 1009.70 1009.74 1009.82 1009.86 1009.98 1010.02 1010.14 1010.50 1010.90 1010.94 1011.38 1011.66 1012.02 1012.26 1012.46 1012.42 1012.58 1012.74 1012.94 1012.70 1012.54 1012.98 1013.26 1013.62 1013.82 1014.26 1014.74 1015.10 1015.34 1015.02 1014.34 1013.98 1013.66 1013.30 1014.06 1015.34 1015.58 1015.34 1015.62 1015.74 1015.94 1016.22 1016.10 1016.10 1016.22 1016.18 1016.14 1015.74 1015.58 1014.98
1008.82 1008.54 1008.46 1008.34 1008.34 1008.26 1008.22 1008.18 1008.18 1008.30 1008.30 1008.30 1008.30 1008.26 1008.22 1008.10 1008.02 1008.10 1007.98 1008.46 1008.86 1008.98 1008.94 1008.98 1008.90 1008.90 1008.94 1009.14 1009.54 1009.70 1009.78 1009.98 1010.22 1010.50 1010.86 1011.14 1011.54 1011.78 1011.90 1012.06 1012.14 1012.38 1012.42 1012.22 1012.22 1012.26 1012.50 1013.14 1013.66 1013.70 1013.98 1014.42 1014.74 1014.46 1014.06 1013.30 1013.70 1013.90 1013.66 1014.62 1015.58 1015.14 1014.98 1015.42 1015.78 1016.02 1015.98 1015.82 1015.86 1015.54 1015.30 1015.58 1015.26 1014.86
1008.02 1007.90 1007.86 1007.78 1007.66 1007.62 1007.66 1007.58 1007.50 1007.54 1007.58 1007.66 1007.74 1007.82 1007.86 1007.74 1007.58 1007.62 1007.78 1007.90 1008.10 1008.34 1008.34 1008.34 1008.34 1008.26 1008.38 1008.50 1008.70 1009.02 1009.42 1009.82 1010.18 1010.22 1010.22 1010.42 1010.70 1011.02 1011.22 1011.38 1011.54 1011.42 1011.70 1011.94 1011.94 1011.98 1012.22 1012.66 1012.78 1012.86 1012.94 1013.42 1013.42 1012.62 1012.10 1012.34 1012.70 1012.86 1013.34 1013.74 1014.46 1015.02 1014.82 1015.26 1015.54 1015.10 1015.18 1015.22 1015.14 1014.90 1015.02 1014.78 1015.22 1015.46
1007.34 1007.18 1007.14 1007.10 1007.06 1006.86 1006.78 1006.78 1006.78 1006.66 1006.74 1006.74 1006.78 1006.74 1007.02 1007.22 1007.10 1007.10 1007.14 1007.22 1007.46 1007.62 1007.66 1007.70 1007.74 1007.86 1007.90 1007.94 1008.10 1008.30 1008.66 1009.10 1009.46 1009.46 1009.58 1009.78 1010.06 1010.26 1010.42 1010.50 1010.82 1011.06 1011.38 1011.62 1011.78 1011.78 1011.98 1011.98 1011.86 1011.70 1011.74 1011.74 1011.94 1011.98 1011.74 1011.50 1011.46 1011.58 1012.06 1012.78 1013.74 1014.62 1014.90 1014.58 1014.78 1014.90 1014.78 1014.58 1014.46 1014.66 1014.94 1014.82 1015.10 1015.14
1006.78 1006.86 1006.70 1006.50 1006.38 1006.18 1006.18 1006.18 1006.10 1006.02 1006.02 1005.98 1006.06 1006.14 1006.22 1006.30 1006.46 1006.42 1006.38 1006.42 1006.62 1006.90 1007.06 1007.10 1007.22 1007.42 1007.46 1007.54 1007.82 1008.10 1008.46 1008.50 1008.66 1008.78 1008.74 1008.98 1009.38 1009.90 1010.06 1010.30 1010.50 1010.62 1011.10 1011.26 1011.18 1011.22 1011.06 1010.46 1010.22 1010.62 1011.18 1011.74 1012.14 1012.18 1012.66 1012.70 1012.70 1012.34 1012.42 1012.86 1013.82 1014.46 1014.38 1014.42 1014.22 1014.26 1014.58 1014.22 1014.46 1014.74 1014.70 1014.58 1014.46 1014.58
1006.06 1006.14 1005.94 1005.86 1005.98 1005.74 1005.62 1005.62 1005.50 1005.50 1005.50 1005.54 1005.58 1005.58 1005.66 1005.86 1005.90 1005.82 1005.78 1005.78 1005.74 1005.78 1005.86 1006.06 1006.30 1006.62 1006.82 1007.02 1007.14 1007.50 1007.98 1008.10 1008.30 1008.54 1008.42 1008.30 1008.70 1009.34 1009.94 1010.14 1010.18 1010.10 1010.50 1010.74 1010.58 1010.30 1009.98 1010.14 1010.70 1011.14 1011.42 1011.78 1012.34 1013.06 1013.30 1012.86 1012.50 1012.38 1012.50 1012.74 1013.22 1013.86 1014.22 1014.38 1014.34 1014.22 1014.14 1014.18 1014.42 1014.90 1014.70 1014.30 1014.06 1014.54
1005.46 1005.46 1005.46 1005.34 1005.26 1005.14 1005.02 1004.98 1004.98 1005.02 1005.02 1004.94 1004.98 1004.98 1005.18 1005.34 1005.34 1005.54 1005.58 1005.42 1005.34 1005.26 1005.18 1005.22 1005.34 1005.70 1006.02 1006.30 1006.50 1006.70 1007.06 1007.46 1007.54 1007.70 1008.02 1008.26 1008.30 1008.54 1009.06 1009.50 1009.42 1009.42 1009.58 1009.78 1009.74 1009.86 1010.06 1010.34 1010.86 1011.34 1011.54 1011.70 1011.90 1012.22 1012.70 1012.34 1011.86 1012.06 1012.74 1013.06 1013.22 1013.70 1013.98 1014.18 1014.34 1014.34 1014.34 1014.46 1014.42 1014.26 1014.06 1014.14 1014.42 1014.82
1005.06 1005.06 1004.90 1004.74 1004.74 1004.66 1004.58 1004.54 1004.50 1004.38 1004.42 1004.50 1004.58 1004.74 1004.86 1005.02 1005.10 1004.98 1005.06 1005.14 1004.98 1004.90 1004.86 1005.06 1005.22 1005.50 1005.70 1005.74 1005.82 1005.86 1006.02 1006.26 1006.50 1006.78 1007.10 1007.38 1007.66 1007.74 1008.02 1008.46 1008.82 1008.90 1008.90 1009.14 1009.46 1009.58 1009.70 1010.02 1010.34 1010.86 1011.62 1011.86 1011.86 1012.14 1012.22 1011.82 1011.46 1011.30 1011.54 1011.94 1012.58 1013.42 1013.78 1013.70 1013.94 1014.26 1014.34 1014.26 1014.18 1014.26 1014.34 1014.34 1014.34 1014.42
1004.78 1004.66 1004.46 1004.30 1004.30 1004.30 1004.30 1004.18 1004.14 1004.14 1004.18 1004.22 1004.30 1004.46 1004.54 1004.66 1004.70 1004.62 1004.66 1004.74 1004.86 1004.90 1004.86 1004.78 1004.98 1005.14 1005.26 1005.30 1005.50 1005.66 1005.46 1005.54 1005.98 1006.26 1006.54 1006.86 1007.18 1007.42 1007.58 1007.74 1008.26 1008.50 1008.54 1008.62 1009.14 1009.38 1009.66 1010.02 1010.02 1010.30 1010.90 1011.34 1011.58 1011.82 1011.98 1011.78 1011.50 1011.22 1011.30 1011.82 1012.26 1012.58 1012.86 1013.14 1013.66 1013.86 1013.90 1013.66 1013.46 1013.86 1014.06 1014.18 1014.26 1014.38
Wind_Speed
5 5 6 5 5 4 3 3 3 0 1 2 0 2 1 2 3 2 0 2 2 2 4 1 3 3 3 2 3 3 3 6 6 5 5 4 5 8 6 7 6 5 5 5 5 5 4 4 7 8 8 8 8 9 9 9 9 9 10 11 12 12 13 13 14 14 14 14 13 13 13 13 13 13
4 5 4 5 5 5 5 5 5 3 3 3 3 2 0 1 3 2 3 3 2 3 1 4 3 2 3 3 2 2 3 7 6 5 4 5 6 7 7 7 5 5 6 6 6 4 4 7 8 8 9 8 8 9 8 9 9 10 10 10 11 11 13 13 13 14 14 14 13 12 13 13 13 13
5 5 5 4 4 4 5 5 4 4 4 3 3 2 2 2 2 3 3 4 1 3 3 3 4 3 2 4 3 3 4 4 4 5 4 4 5 8 6 7 7 7 6 5 5 5 6 8 8 8 8 8 8 9 9 8 9 9 9 10 11 12 12 12 12 13 13 14 13 13 13 13 13 13
5 5 6 5 4 4 4 5 5 4 4 4 4 4 3 3 3 3 4 4 5 4 5 4 4 3 4 3 3 4 4 4 8 5 3 2 6 9 6 8 8 7 5 5 5 6 7 7 8 8 7 7 8 9 8 8 8 9 9 10 11 11 11 11 11 12 13 13 13 14 14 13 13 13
5 6 6 5 6 5 5 5 6 5 5 5 5 5 4 5 4 4 4 5 5 4 4 4 4 4 4 3 2 4 5 3 4 5 4 2 2 2 5 7 8 6 6 6 6 6 7 7 7 7 7 7 8 8 8 8 8 8 9 9 9 10 10 10 10 11 12 13 13 14 14 13 12 13
6 6 6 7 7 7 7 7 7 6 6 6 6 6 5 5 5 3 4 5 5 6 4 4 4 4 2 4 2 4 5 4 3 4 4 3 2 1 3 6 5 8 7 7 7 6 6 7 6 6 6 6 7 7 7 7 7 7 7 8 9 10 9 10 11 11 12 13 14 15 14 13 12 13
8 8 7 8 7 6 7 7 7 7 7 6 6 6 5 5 5 4 4 5 6 6 5 5 6 3 3 4 4 4 3 3 3 4 3 4 2 1 3 4 6 8 8 8 7 6 6 7 6 5 5 6 6 5 5 5 5 6 7 8 9 9 9 9 11 11 12 13 15 15 14 13 12 13
8 9 8 8 8 8 8 7 7 7 7 6 6 6 6 6 6 5 5 5 6 6 7 5 5 5 5 5 4 4 3 4 3 3 3 3 1 3 4 5 7 8 11 9 8 6 6 6 6 5 5 6 5 5 5 5 6 6 7 7 8 8 9 8 10 11 12 13 14 15 14 13 12 12
8 8 9 9 9 8 8 8 8 8 9 7 7 6 5 5 5 5 5 5 6 6 7 6 5 5 6 5 4 4 4 3 3 2 2 4 2 2 6 5 7 12 10 11 10 8 6 6 5 5 5 5 5 5 5 5 6 7 7 7 7 8 8 8 10 11 11 13 13 12 14 13 13 10
9 9 9 9 9 9 10 9 9 8 9 8 8 7 6 5 5 6 6 6 6 7 7 7 7 5 6 5 4 4 4 4 4 4 2 3 0 2 3 1 7 8 8 6 6 6 6 6 5 6 6 5 5 5 5 5 6 6 7 7 7 7 8 9 10 10 11 12 13 14 14 13 12 10
10 10 10 9 10 10 10 10 10 9 9 8 9 7 7 7 7 7 7 7 7 7 7 7 7 7 6 5 5 3 3 4 5 4 4 3 1 2 2 3 3 2 2 8 7 5 5 10 6 7 6 6 6 5 6 7 5 6 6 6 7 7 8 9 9 10 11 10 10 11 11 11 12 12
11 11 11 11 11 11 10 10 9 9 8 7 8 7 7 7 7 7 7 7 7 7 7 7 6 6 5 5 6 5 5 5 4 4 4 4 4 3 2 4 3 3 3 4 6 6 9 9 7 8 7 9 8 8 9 8 7 5 6 6 6 7 8 8 9 10 11 11 10 10 10 10 10 11
11 11 11 11 11 11 11 11 9 7 4 6 7 7 7 7 7 7 7 7 7 7 7 7 6 7 7 6 5 5 5 5 4 3 4 5 5 4 5 3 3 3 4 4 4 3 4 6 9 7 6 6 9 10 8 10 10 6 5 5 5 7 7 7 8 9 10 10 10 9 9 9 9 11
12 12 11 11 12 10 10 10 10 9 7 7 8 6 6 8 8 7 8 7 7 7 7 7 7 7 7 6 5 5 5 4 5 6 4 5 5 5 6 5 4 4 5 6 4 5 4 4 4 4 5 3 7 2 2 6 6 4 4 4 5 6 7 6 7 8 9 10 10 9 9 9 8 9
11 11 11 11 10 9 9 10 12 12 13 12 11 11 11 9 7 8 9 8 8 8 8 7 7 8 8 7 7 7 7 6 5 5 4 5 6 6 6 7 4 4 4 4 5 6 4 3 5 5 3 3 2 3 4 7 4 2 2 3 5 6 6 6 6 7 8 8 9 10 9 9 8 7
11 11 11 11 10 11 12 12 11 13 14 14 13 13 13 14 15 12 8 7 7 8 8 8 8 8 7 7 6 7 7 5 5 5 5 5 6 7 7 6 7 1 3 4 6 7 4 5 5 6 4 3 3 6 9 7 5 4 2 2 4 5 5 5 5 6 7 8 9 10 10 9 7 7
11 10 10 10 10 9 12 12 11 10 12 14 16 14 14 14 14 15 16 14 11 8 8 9 9 8 7 8 7 6 6 5 7 6 7 6 7 7 7 7 7 4 2 4 6 7 4 5 5 6 3 5 5 8 9 8 6 4 4 3 4 4 4 4 5 6 7 9 10 10 11 9 8 5
12 11 11 10 10 10 9 9 11 11 10 9 10 11 11 11 14 16 16 17 17 14 11 10 10 9 8 8 7 6 6 6 7 7 7 7 7 7 8 7 7 6 4 7 6 7 8 5 6 5 3 5 5 6 11 10 7 6 5 5 4 3 4 4 5 6 8 9 10 11 12 11 9 6
12 12 11 12 11 10 10 10 11 11 11 10 9 10 11 11 11 12 13 14 13 12 12 13 13 11 9 9 8 7 7 8 8 7 8 8 8 8 8 8 8 8 7 8 6 8 7 3 5 6 4 5 5 7 10 11 9 8 7 6 5 3 3 4 5 6 7 7 9 10 12 12 11 8
12 13 12 12 12 12 12 11 12 12 10 10 11 11 11 11 11 11 12 13 13 13 12 13 13 11 11 7 7 6 6 7 7 7 8 8 8 8 8 8 9 10 7 8 7 7 7 6 6 6 4 4 5 8 8 11 11 9 8 7 6 4 4 4 5 7 7 7 7 8 10 11 11 10
13 13 13 13 12 13 12 12 15 15 12 11 11 11 11 11 11 12 11 14 17 17 15 15 15 13 11 8 7 7 7 7 7 7 8 9 9 9 9 9 9 9 8 6 9 7 7 6 6 6 5 5 4 5 7 8 10 10 9 8 6 6 4 3 5 5 7 7 8 9 10 11 12 12
12 13 16 15 13 13 12 13 16 16 14 13 12 12 12 12 12 11 11 7 10 16 17 16 15 12 11 11 11 10 11 10 5 8 10 11 9 10 9 9 9 9 8 6 5 6 8 7 6 6 6 3 4 6 4 9 8 9 8 8 9 8 6 4 2 2 4 5 8 10 11 13 13 5
13 13 13 16 16 13 12 12 16 17 16 13 12 12 12 13 13 12 10 10 9 9 9 9 9 10 11 11 10 12 16 15 12 11 12 11 10 10 10 9 9 9 8 9 7 7 7 7 6 5 5 8 6 6 5 8 8 8 7 6 6 9 8 7 6 4 2 4 6 8 10 13 12 4
13 14 13 13 18 19 15 12 15 17 18 14 12 11 12 12 13 10 10 10 9 9 10 9 10 11 10 11 11 12 12 12 13 13 13 12 11 10 10 10 10 10 8 5 9 7 7 7 7 5 6 7 6 4 4 5 5 6 6 6 5 8 9 8 6 8 7 3 2 4 8 10 12 6
13 12 13 13 16 21 20 17 16 16 18 16 13 13 12 12 9 6 9 9 8 9 9 10 9 9 9 9 10 10 10 11 11 12 13 13 12 11 11 11 11 11 10 5 13 7 7 6 8 5 6 7 8 7 4 4 4 5 5 4 4 5 5 5 5 7 8 7 5 5 3 4 8 8
13 13 11 11 12 19 21 20 18 18 17 18 12 14 15 12 9 7 8 7 9 9 10 10 10 10 10 11 11 11 12 12 12 12 11 12 12 12 12 12 11 11 10 4 14 7 6 7 8 8 6 5 7 8 3 5 5 5 5 5 4 3 3 3 3 1 2 5 5 2 3 5 3 1
13 11 11 12 12 17 20 20 20 19 19 15 13 18 15 14 12 7 10 9 9 10 10 10 10 10 10 10 10 10 11 11 10 11 10 10 11 12 12 13 12 12 11 6 10 7 7 8 7 8 8 8 8 6 7 7 5 6 5 6 5 4 4 3 2 2 1 1 1 8 9 9 8 7
14 13 12 11 13 16 18 19 18 18 18 14 18 17 17 15 11 8 11 10 11 10 11 12 11 11 10 10 11 10 10 10 8 9 9 9 11 11 11 12 13 13 13 12 8 7 8 9 9 8 8 7 7 8 8 6 6 6 6 6 6 6 5 4 4 3 3 2 1 0 1 3 4 7
15 13 11 11 11 13 14 16 16 15 17 21 19 19 18 14 9 10 11 12 12 13 13 13 12 12 11 11 11 9 9 9 9 9 9 10 11 11 11 11 11 10 9 10 10 9 9 10 10 8 7 7 7 7 7 7 5 6 6 6 6 6 5 5 4 4 3 2 1 1 0 0 1 1
16 14 10 9 9 10 11 9 7 8 10 17 19 18 15 10 11 11 12 12 13 14 13 13 12 12 11 11 11 11 10 10 10 10 10 10 10 10 10 10 11 10 11 10 11 10 10 9 10 9 8 7 8 9 7 6 6 5 6 6 6 4 6 5 6 4 4 3 3 3 2 1 1 2
13 12 12 10 10 9 12 13 10 11 11 12 11 9 10 11 11 12 12 13 12 12 12 12 12 11 11 10 10 10 11 11 10 10 10 10 10 10 10 9 10 10 10 10 10 10 9 10 9 7 9 8 7 8 7 5 5 5 5 6 6 6 5 7 6 6 5 4 4 3 3 4 3 3
16 17 14 13 11 9 8 9 9 10 11 12 11 11 11 12 13 14 14 13 12 12 12 11 11 11 11 11 11 11 11 12 11 10 10 10 10 10 9 10 11 10 9 9 9 10 8 9 9 8 9 7 6 6 6 6 6 6 6 7 7 7 5 7 7 6 5 4 5 5 3 3 3 3
12 12 13 13 13 13 13 13 13 13 13 13 13 14 12 12 13 13 13 14 14 13 12 13 13 12 12 12 11 12 12 12 11 10 10 10 10 10 10 10 10 11 11 10 9 9 10 9 5 6 5 3 3 5 6 6 5 6 7 7 7 8 7 7 7 6 7 5 5 6 6 4 3 3
12 11 12 14 14 14 14 15 14 14 14 13 13 13 14 13 13 13 13 14 13 12 13 12 12 12 12 13 13 13 13 12 11 10 9 11 11 11 11 12 12 10 10 10 9 9 7 5 4 3 3 3 3 5 8 8 5 5 7 7 7 8 8 8 7 6 6 6 6 6 5 6 6 5
13 13 14 14 14 15 15 15 15 14 14 14 14 14 13 13 14 14 13 13 12 13 13 13 13 13 13 13 13 14 13 13 11 11 11 11 10 11 11 11 11 9 8 8 6 6 7 7 6 5 2 1 2 4 5 6 8 6 7 9 8 9 8 8 7 7 7 7 6 6 6 6 5 7
11 12 12 14 14 14 15 16 14 14 15 13 13 13 14 14 13 13 14 12 12 13 13 13 13 13 13 13 13 13 13 12 12 10 9 9 9 9 9 9 7 7 9 8 7 7 7 9 10 12 8 8 8 7 9 10 13 10 8 10 10 9 9 7 7 7 7 8 7 6 7 5 5 6
11 11 13 14 14 14 14 13 12 13 15 15 14 13 14 14 14 13 13 11 13 13 13 13 13 13 13 13 13 12 12 12 12 10 9 9 9 10 9 10 9 8 9 11 11 9 8 10 11 10 9 11 10 13 8 8 13 14 7 8 8 10 9 8 7 8 8 8 7 7 7 6 5 5
12 12 14 14 14 14 14 14 12 10 11 12 15 15 14 14 13 13 12 13 14 14 14 14 14 14 14 13 13 13 12 13 12 12 11 11 11 12 13 12 11 11 12 12 11 12 13 10 11 10 12 12 11 11 9 7 7 13 16 7 8 10 9 9 9 9 8 8 8 8 7 7 7 5
12 14 15 14 14 13 14 14 14 14 12 13 14 14 14 15 15 14 13 13 14 14 14 14 14 14 14 14 13 13 13 13 13 14 14 13 13 14 13 13 12 12 12 12 10 10 11 12 11 12 13 11 13 14 11 10 9 9 15 23 13 9 9 8 9 9 9 9 9 7 6 2 9 9
13 13 13 14 14 14 14 14 14 15 15 15 15 14 14 14 14 15 14 14 13 14 15 14 13 13 13 14 13 13 14 15 15 15 14 13 13 13 13 12 12 11 9 13 12 10 12 12 13 14 14 10 5 1 1 3 4 5 10 18 22 13 8 10 11 9 8 8 8 7 7 7 7 6
11 12 12 13 15 15 14 14 14 14 15 14 14 14 14 14 15 16 14 14 12 13 14 14 13 13 14 14 12 10 13 14 14 14 14 13 10 10 13 10 10 10 11 13 14 13 16 15 14 10 5 2 3 2 1 5 7 6 6 7 14 17 14 5 6 7 7 6 6 8 8 8 8 3
12 12 13 14 15 15 16 15 15 14 15 14 14 14 14 13 14 15 13 14 14 14 14 14 13 12 12 13 13 10 13 14 12 11 14 13 10 9 10 12 13 11 11 15 14 14 12 5 7 8 8 7 8 9 10 8 7 5 3 5 9 15 18 12 6 5 3 4 7 8 7 8 7 8
13 14 14 15 15 16 15 15 15 15 15 14 14 13 13 14 14 13 15 15 14 14 14 14 13 12 11 12 11 12 14 14 14 12 13 13 14 13 13 13 13 13 14 13 10 7 6 7 8 8 8 10 11 10 10 8 6 6 4 6 7 8 9 10 8 7 6 5 4 4 4 4 6 8
12 12 14 14 14 14 15 15 15 14 14 14 13 13 15 15 15 15 15 15 16 15 14 12 13 13 12 12 13 15 15 14 13 14 13 14 14 14 13 12 12 13 12 9 10 11 10 11 10 10 12 15 11 10 10 8 8 8 7 6 7 9 9 9 8 4 4 8 12 9 3 2 5 6
10 11 13 12 10 11 13 13 13 14 13 14 14 14 13 14 14 15 14 14 13 13 10 9 12 13 13 12 11 12 12 11 11 10 9 10 10 11 11 11 11 11 13 9 9 9 8 9 8 8 9 10 9 10 6 6 6 7 6 6 9 11 10 9 9 9 9 9 10 11 9 6 5 4
Wind_Direction
230 226 222 234 236 248 263 261 243 171 290 269 358 331 351 9 298 318 348 9 343 49 350 3 120 23 338 310 338 342 356 41 332 350 349 348 50 60 55 53 53 22 36 27 30 32 43 66 69 72 71 69 66 61 52 41 31 23 17 16 14 10 6 3 359 358 357 357 359 357 353 354 357 354
239 240 232 219 231 228 229 218 231 166 226 241 221 218 197 280 307 336 312 328 305 0 325 320 71 106 327 299 335 344 329 94 314 352 350 1 52 95 90 79 57 52 38 46 46 42 74 80 78 77 75 72 68 64 53 39 29 21 17 19 18 15 13 5 0 360 356 354 354 354 352 353 355 351
227 231 236 225 239 241 247 250 225 196 217 225 254 246 251 248 276 295 309 291 58 330 312 346 353 341 348 331 319 337 331 104 352 340 355 18 71 136 102 98 80 56 51 48 63 90 91 87 83 80 79 74 72 64 51 40 30 22 19 20 20 19 13 4 2 0 356 351 349 350 350 351 353 350
214 220 226 225 233 227 235 238 246 231 229 251 251 244 238 243 255 277 281 289 300 309 315 338 312 330 348 301 314 342 306 131 183 344 332 48 258 154 120 96 81 76 63 74 99 101 94 89 83 80 74 68 63 58 51 38 30 25 19 18 20 17 11 3 2 2 357 351 348 350 351 352 354 352
220 221 227 230 226 234 233 230 238 235 228 226 236 246 249 254 245 244 268 284 295 296 322 307 315 344 326 333 344 312 318 336 9 322 4 310 11 331 114 115 96 92 95 109 109 103 96 90 89 82 71 62 55 51 45 35 28 24 17 15 12 12 8 3 1 2 356 353 351 353 354 354 355 358
233 220 226 228 228 221 231 237 235 235 244 232 231 226 235 257 261 236 266 280 290 296 298 302 326 307 294 296 336 335 316 340 323 332 329 328 32 353 297 116 110 118 125 126 119 113 107 102 94 87 76 61 52 50 38 32 23 23 17 9 12 13 4 2 1 359 356 353 356 359 0 2 4 5
225 226 224 227 228 227 227 233 239 241 244 255 263 263 258 255 259 252 234 263 279 290 295 302 290 300 315 306 314 305 304 299 293 303 336 326 10 316 284 116 116 136 139 132 123 122 116 107 103 98 84 69 62 52 41 33 24 24 16 13 14 13 6 2 1 359 358 358 7 3 5 10 8 11
230 230 229 231 231 230 228 233 241 240 237 237 238 247 246 251 256 263 261 245 263 280 287 287 293 304 306 294 288 286 274 283 316 313 333 301 3 326 283 124 125 150 146 137 131 129 121 119 118 108 98 91 79 68 58 38 33 25 20 13 13 12 9 4 358 1 359 6 9 9 10 12 14 13
239 236 235 231 228 231 233 233 235 239 234 234 240 237 237 239 244 246 248 248 248 260 271 280 277 285 281 280 278 278 296 297 273 272 283 317 324 336 300 114 121 144 153 138 139 141 138 141 144 138 127 119 105 87 66 49 38 32 22 15 12 9 4 1 4 3 0 13 15 11 12 11 13 10
234 237 236 235 234 230 230 233 234 237 239 235 235 240 244 243 241 242 243 247 252 258 266 273 278 266 270 277 278 280 276 288 301 296 270 270 254 297 313 359 151 163 168 169 149 141 155 156 168 161 149 142 143 117 83 60 46 35 22 13 13 15 14 10 7 2 6 15 17 17 14 11 10 16
236 234 234 231 232 233 232 233 232 229 230 234 237 233 234 233 236 236 238 238 242 248 256 261 264 270 262 255 265 238 242 274 271 279 288 290 264 279 296 282 300 278 111 100 92 108 130 148 178 168 188 181 171 163 121 81 54 39 24 13 15 19 18 14 11 7 9 10 10 8 7 6 12 21
243 239 236 235 228 229 230 231 232 234 234 231 235 229 223 229 231 240 244 242 241 244 250 257 268 273 281 273 270 263 234 250 241 242 265 290 300 293 276 282 281 305 288 251 165 138 139 164 148 176 201 194 189 158 134 101 72 42 26 13 17 23 21 17 12 12 9 12 10 7 7 9 12 20
240 243 241 238 237 228 224 228 236 246 262 241 232 228 227 225 229 235 240 240 242 246 253 259 259 259 259 266 269 267 263 258 276 289 291 288 286 277 285 279 244 258 271 271 281 227 197 191 178 189 197 171 191 184 210 124 105 55 24 15 21 27 25 15 16 11 11 9 9 5 3 6 14 20
242 241 242 243 234 228 216 202 204 219 235 246 259 257 229 224 230 233 237 240 238 242 249 251 253 256 258 260 252 265 267 272 254 253 245 269 284 293 285 278 259 214 241 273 270 266 229 239 272 288 288 166 206 164 97 35 32 49 24 19 24 36 23 18 13 13 9 7 5 3 360 358 10 15
243 244 241 244 230 206 203 202 198 208 215 219 229 248 267 284 271 239 238 240 241 244 245 250 252 256 264 267 279 279 278 271 280 288 293 283 283 282 290 293 289 196 237 248 275 278 282 264 286 273 276 206 188 137 95 136 160 133 71 34 39 37 31 15 16 9 6 4 359 358 357 356 360 15
235 238 240 237 236 228 221 222 206 207 210 214 220 225 231 238 253 268 275 264 248 244 250 252 257 266 264 272 265 270 277 282 279 277 279 268 272 277 274 279 284 348 194 287 286 284 255 208 242 280 249 213 197 103 124 155 157 163 129 81 50 45 30 23 11 7 0 0 355 349 350 348 348 8
233 233 234 241 241 242 195 204 221 215 206 210 217 220 223 231 233 238 244 253 260 266 256 255 258 254 262 263 262 264 272 276 271 276 269 273 274 267 270 273 283 292 241 272 279 281 284 189 233 266 221 211 151 127 152 167 164 162 149 97 72 44 36 24 18 3 2 1 355 353 350 349 345 359
230 228 231 230 231 234 225 216 216 219 220 202 201 213 221 228 223 223 229 234 240 246 254 256 254 251 245 252 255 258 257 254 261 266 271 277 272 268 268 281 282 273 253 259 275 280 275 237 255 265 228 190 171 159 142 170 169 164 147 120 87 70 35 28 21 16 8 3 357 353 353 348 342 348
234 230 226 228 229 227 226 223 213 217 217 220 217 212 217 220 226 222 218 218 220 222 229 237 243 248 249 249 251 254 250 252 255 257 268 273 276 279 279 272 260 263 245 242 242 260 270 253 250 266 260 170 204 136 146 169 168 165 153 135 127 92 45 27 27 22 15 7 2 359 358 351 342 336
230 230 229 226 226 226 226 215 198 211 223 222 222 226 229 230 229 230 223 212 197 210 215 223 231 236 240 246 262 280 286 273 262 254 249 251 253 256 259 262 265 261 246 201 218 252 262 266 258 274 267 172 206 155 156 168 173 167 160 146 135 117 71 34 28 22 12 9 10 13 7 358 340 320
232 229 225 225 225 224 224 210 185 197 209 229 230 229 231 237 241 240 228 194 193 197 214 221 228 241 257 266 264 269 274 267 286 291 275 254 252 253 256 258 262 262 264 215 206 241 260 264 266 262 267 199 234 211 163 156 174 170 162 153 148 134 113 65 43 25 7 1 9 13 12 5 343 307
234 232 225 225 227 227 225 199 182 191 195 222 229 231 233 235 238 240 245 221 191 197 202 214 224 232 241 250 257 257 254 244 225 238 244 247 255 255 250 252 258 271 267 260 217 216 244 262 264 258 267 183 228 247 192 147 155 168 165 167 154 154 159 141 110 21 12 2 5 10 4 4 336 291
232 234 224 217 223 227 228 192 184 185 194 218 224 227 231 236 239 240 234 235 215 195 209 221 226 239 238 240 239 238 231 229 216 228 238 249 249 254 256 254 257 261 255 249 206 217 243 254 262 240 259 269 257 197 193 163 168 178 172 168 168 163 174 178 164 172 184 359 14 12 2 2 340 13
227 228 232 215 206 217 222 202 187 188 195 213 223 226 230 232 237 237 240 235 236 225 210 219 215 223 227 228 224 228 227 216 211 220 225 234 241 244 250 249 250 255 257 268 165 210 254 270 273 218 247 272 285 157 186 184 201 199 191 175 177 177 188 173 188 207 174 167 53 20 7 7 356 9
229 226 225 234 198 202 210 207 192 191 198 209 222 228 231 231 238 252 241 230 215 236 241 240 241 236 233 233 234 229 226 224 210 209 216 225 227 232 241 248 248 255 253 242 156 221 231 260 269 249 225 255 264 261 174 186 200 207 197 207 203 163 192 189 193 180 173 176 162 152 71 10 6 2
232 229 226 230 199 191 202 206 197 197 197 206 218 230 236 243 247 252 243 252 246 241 239 241 238 236 237 239 240 240 237 231 226 217 210 210 222 224 235 242 249 263 268 137 161 204 224 248 253 251 230 224 258 266 214 177 213 216 198 220 198 171 213 191 214 165 188 172 167 163 148 182 203 100
237 231 232 231 200 184 196 199 201 201 202 202 219 226 231 236 241 244 242 247 249 247 246 244 242 238 236 238 236 234 237 239 235 232 220 207 210 224 237 244 248 255 262 247 178 232 229 254 252 246 244 241 255 264 259 263 231 189 208 216 194 189 205 214 222 209 171 200 158 179 194 192 203 177
240 240 234 229 205 186 190 194 195 200 201 210 218 223 228 232 232 239 242 242 242 244 245 242 240 238 236 238 239 236 234 238 238 235 233 228 219 223 233 238 242 251 255 256 225 222 241 250 247 236 240 242 237 247 263 251 254 174 216 208 210 201 198 210 208 197 210 214 273 274 17 148 164 180
245 246 237 237 211 191 187 190 190 198 204 212 217 217 221 221 227 227 234 238 238 238 237 237 236 237 232 233 237 240 242 239 239 240 235 234 237 240 240 244 245 242 241 246 244 227 240 235 240 242 230 232 238 241 245 262 234 192 207 213 212 212 203 204 214 207 213 213 194 236 109 5 79 25
245 261 265 244 222 194 186 181 189 203 200 212 218 220 217 217 222 224 225 227 231 234 236 235 234 234 233 228 226 227 232 237 235 233 237 239 237 235 238 244 242 239 242 242 245 234 230 234 237 238 220 210 229 249 246 232 225 217 197 209 231 209 208 212 220 208 205 212 204 199 183 173 25 301
250 245 244 239 225 230 198 200 198 207 197 197 210 218 216 221 223 221 221 225 225 226 229 230 230 232 232 234 228 222 226 231 233 232 228 234 239 238 240 238 243 245 238 239 237 230 212 222 230 222 223 222 215 226 233 221 225 211 206 205 222 227 207 211 220 216 203 213 201 192 196 207 183 226
230 235 231 227 232 228 222 217 221 226 225 224 211 211 209 213 218 222 224 227 231 231 230 233 233 234 231 233 231 228 228 233 232 227 233 235 238 235 232 235 241 244 232 222 230 221 203 213 216 215 223 220 217 199 204 206 217 216 220 211 219 236 230 209 216 211 202 221 231 203 198 223 197 171
236 237 239 241 233 233 232 235 235 232 232 231 224 219 212 212 211 214 214 218 221 223 225 231 232 232 231 231 231 233 234 228 229 229 228 229 236 237 237 235 236 237 234 228 212 216 213 206 188 210 194 177 202 202 194 190 219 234 231 215 215 228 236 224 230 210 174 210 238 237 189 208 197 180
226 222 232 236 237 237 235 235 231 232 230 228 225 222 217 218 217 212 212 216 217 215 220 223 225 229 229 231 230 231 233 233 232 226 223 232 231 230 230 237 240 232 231 235 217 194 181 171 161 107 117 165 249 209 172 176 184 230 248 244 217 226 227 233 227 203 189 222 233 253 233 210 187 172
218 233 237 238 238 238 238 238 235 233 233 235 233 228 221 219 222 219 218 215 213 215 216 219 225 227 227 231 230 233 233 235 232 231 224 230 228 227 231 234 236 224 210 215 214 196 160 155 136 137 142 151 214 282 238 180 149 189 228 237 243 232 230 223 225 206 212 232 235 244 249 269 178 170
210 221 231 239 238 235 235 235 237 237 237 233 234 234 230 226 221 220 223 216 213 215 217 218 219 223 227 230 231 233 236 231 232 228 222 208 215 226 229 226 219 217 214 205 181 177 159 163 164 181 183 193 200 209 217 176 161 187 201 227 226 227 230 227 219 221 216 231 227 234 253 252 258 168
224 227 234 238 237 237 238 237 235 234 237 240 238 236 237 235 230 225 221 210 220 222 220 220 222 223 224 226 229 229 230 227 228 219 218 213 217 214 219 222 220 215 208 214 206 188 174 177 175 182 184 194 197 216 205 144 192 199 192 224 235 221 218 220 218 220 228 233 231 231 242 258 255 268
225 232 238 237 237 237 239 238 235 231 230 233 240 241 241 241 239 236 227 220 222 227 226 225 230 229 231 228 232 234 233 236 233 228 223 218 220 219 219 219 217 214 218 219 211 208 192 179 182 190 192 198 200 211 210 170 155 207 204 200 238 240 218 212 213 218 222 224 243 242 248 252 262 266
231 240 238 239 236 237 236 237 237 235 229 230 231 235 238 242 241 238 235 232 227 227 232 234 231 231 231 233 233 233 236 235 230 231 229 224 220 221 219 220 224 223 221 223 210 205 186 185 184 193 199 195 201 207 187 173 176 157 186 203 214 235 234 214 225 224 228 230 224 220 236 274 69 68
227 230 237 240 241 240 240 237 238 239 241 238 237 235 233 235 237 236 233 230 229 230 237 239 237 235 234 234 234 234 239 236 234 239 233 229 224 224 226 224 224 219 213 219 217 202 193 198 197 200 204 210 218 257 99 117 92 188 186 192 200 211 234 228 228 232 231 235 255 254 231 213 225 181
224 228 231 233 242 243 241 241 241 242 240 239 239 237 237 239 239 239 237 231 226 227 231 234 233 232 238 236 227 226 235 239 239 237 235 230 216 211 225 223 223 215 213 218 219 215 208 206 206 200 205 123 154 114 139 191 189 170 153 161 195 218 235 287 252 226 233 251 244 246 259 266 282 255
232 228 233 241 244 245 244 242 242 242 243 241 243 242 239 236 240 238 233 223 222 222 226 224 220 214 219 234 234 216 229 236 234 231 236 237 222 198 205 214 222 217 210 218 219 223 222 168 152 166 191 174 186 199 214 208 189 167 141 173 169 210 223 233 300 360 332 259 235 243 252 257 240 238
239 244 245 246 245 246 246 245 244 244 245 246 245 246 246 245 242 236 235 235 226 225 223 222 220 215 213 221 220 218 223 228 231 226 223 225 226 224 216 209 215 220 219 225 225 214 191 165 159 161 178 187 196 201 207 188 154 141 171 218 159 175 202 211 237 265 289 307 302 290 319 301 280 279
244 243 246 246 244 242 243 245 247 248 249 250 253 254 252 252 250 245 243 243 240 235 232 229 228 227 223 218 220 219 218 222 221 225 223 221 218 220 218 211 210 220 225 214 213 212 204 187 171 175 193 208 205 202 205 177 170 173 183 190 147 163 188 198 201 196 245 251 247 246 247 30 73 79
241 244 245 244 239 241 246 248 247 248 248 250 251 251 252 251 252 251 249 246 247 250 242 224 228 228 228 223 217 220 219 207 212 219 216 220 215 217 217 218 211 213 220 206 200 202 172 180 169 174 193 205 212 210 209 193 174 170 170 189 200 171 184 176 183 198 211 223 209 204 205 190 202 196